FW5884 Weather Reports


time (UTC)temp
C
wind
direction
speed
KPH
gust
KPH
rain 1hr
cm
rain 24hr
cm
rain mn
cm
humidity
%
barometer
mb
20260507224014 13 108 0.0 3.2 0.00 0.00 0.00 80 1016.0
20260507223513 13 107 0.0 1.6 0.00 0.00 0.00 80 1016.0
20260507223012 13 68 0.0 1.6 0.00 0.00 0.00 81 1016.1
20260507222512 13 60 0.0 1.6 0.00 0.00 0.00 80 1016.0
20260507222011 13 91 0.0 0.0 0.00 0.00 0.00 80 1016.0
20260507221510 13 94 0.0 0.0 0.00 0.00 0.00 81 1016.0
20260507221012 13 94 0.0 0.0 0.00 0.00 0.00 83 1016.0
20260507220513 13 89 0.0 0.0 0.00 0.00 0.00 85 1016.0
20260507220008 13 88 0.0 0.0 0.00 0.00 0.00 85 1016.1
20260507215507 13 89 0.0 0.0 0.00 0.00 0.00 85 1016.0
20260507215007 13 88 0.0 0.0 0.00 0.00 0.00 85 1015.8
20260507214506 13 88 0.0 0.0 0.00 0.00 0.00 84 1015.9
20260507214006 13 89 0.0 0.0 0.00 0.00 0.00 83 1015.8
20260507213507 13 88 0.0 0.0 0.00 0.00 0.00 83 1015.7
20260507213005 13 90 0.0 0.0 0.00 0.00 0.00 81 1015.7
20260507212504 13 93 0.0 0.0 0.00 0.00 0.00 79 1015.7
20260507212005 13 93 0.0 0.0 0.00 0.00 0.00 79 1015.6
20260507211505 13 68 0.0 0.0 0.00 0.00 0.00 80 1015.6
20260507211004 14 68 0.0 0.0 0.00 0.00 0.00 80 1015.6
20260507210504 13 67 0.0 1.6 0.00 0.00 0.00 78 1015.6
20260507210005 13 113 0.0 1.6 0.00 0.00 0.00 78 1015.5
20260507205503 13 116 0.0 3.2 0.00 0.00 0.00 78 1015.5
20260507205003 13 318 0.0 0.0 0.00 0.00 0.00 79 1015.5
20260507204502 13 317 0.0 1.6 0.00 0.00 0.00 80 1015.4
20260507204002 13 312 0.0 1.6 0.00 0.00 0.00 80 1015.4
20260507203503 13 113 0.0 0.0 0.00 0.00 0.00 82 1015.4
20260507203110 13 113 0.0 0.0 0.00 0.00 0.00 83 1015.3
20260507202559 13 113 0.0 1.6 0.00 0.00 0.00 83 1015.2
20260507202059 13 113 0.0 1.6 0.00 0.00 0.00 83 1015.2
20260507201612 13 106 0.0 0.0 0.00 0.00 0.00 83 1015.1
20260507201058 13 18 0.0 0.0 0.00 0.00 0.00 82 1015.1
20260507200601 13 18 0.0 0.0 0.00 0.00 0.00 83 1014.9
20260507200104 13 18 0.0 0.0 0.00 0.00 0.00 83 1014.9
20260507195559 13 18 0.0 0.0 0.00 0.00 0.00 82 1014.8
20260507195057 13 18 0.0 0.0 0.00 0.00 0.00 81 1014.8
20260507194557 14 18 0.0 0.0 0.00 0.00 0.00 81 1014.9
20260507194056 14 18 0.0 0.0 0.00 0.00 0.00 80 1014.9
20260507193553 14 18 0.0 0.0 0.00 0.00 0.00 80 1014.7
20260507193052 14 18 0.0 0.0 0.00 0.00 0.00 80 1014.7
20260507192551 15 18 0.0 0.0 0.00 0.00 0.00 79 1014.6
20260507192051 15 18 0.0 0.0 0.00 0.00 0.00 79 1014.6
20260507191552 15 18 0.0 0.0 0.00 0.00 0.00 78 1014.5
20260507191049 15 18 0.0 0.0 0.00 0.00 0.00 77 1014.4
20260507190553 15 18 0.0 0.0 0.00 0.00 0.00 76 1014.3
20260507190049 15 18 0.0 0.0 0.00 0.00 0.00 76 1014.1
20260507185547 15 18 0.0 0.0 0.00 0.00 0.00 76 1014.1
20260507185047 15 18 0.0 0.0 0.00 0.00 0.00 75 1014.0
20260507184548 15 18 0.0 0.0 0.00 0.00 0.00 74 1014.0
20260507184048 16 18 0.0 0.0 0.00 0.00 0.00 73 1013.8
20260507183545 16 18 0.0 0.0 0.00 0.00 0.00 73 1013.9
20260507183045 16 18 0.0 0.0 0.00 0.00 0.00 71 1013.7
20260507182544 16 18 0.0 0.0 0.00 0.00 0.00 71 1013.6
20260507182044 16 18 0.0 0.0 0.00 0.00 0.00 70 1013.6
20260507181544 16 18 0.0 0.0 0.00 0.00 0.00 69 1013.6
20260507181044 16 18 0.0 0.0 0.00 0.00 0.00 68 1013.5
20260507180546 17 18 0.0 0.0 0.00 0.00 0.00 67 1013.5
20260507180047 17 18 0.0 0.0 0.00 0.00 0.00 67 1013.6
20260507175543 17 18 0.0 0.0 0.00 0.00 0.00 67 1013.4
20260507175043 17 18 0.0 0.0 0.00 0.00 0.00 67 1013.5
20260507174543 17 18 0.0 0.0 0.00 0.00 0.00 66 1013.5
20260507174042 18 17 0.0 0.0 0.00 0.00 0.00 65 1013.5
20260507173542 18 338 0.0 1.6 0.00 0.00 0.00 65 1013.5
20260507173042 18 360 0.0 1.6 0.00 0.00 0.00 64 1013.4
20260507172544 18 356 0.0 1.6 0.00 0.00 0.00 63 1013.5
20260507172042 18 340 0.0 1.6 0.00 0.00 0.00 62 1013.4
20260507171542 18 2 0.0 1.6 0.00 0.00 0.00 62 1013.5
20260507171042 18 347 0.0 0.0 0.00 0.00 0.00 63 1013.5
20260507170543 18 8 0.0 1.6 0.00 0.00 0.00 62 1013.5
20260507170042 18 261 0.0 1.6 0.00 0.00 0.00 63 1013.4
20260507165541 18 260 0.0 1.6 0.00 0.41 0.00 62 1013.5
20260507165043 18 219 0.0 1.6 0.00 0.41 0.00 63 1013.3
20260507164541 18 151 0.0 0.0 0.00 0.41 0.00 64 1013.5
20260507164041 18 137 0.0 1.6 0.00 0.41 0.00 69 1013.5
20260507163541 18 136 0.0 1.6 0.00 0.41 0.00 68 1013.5
20260507163040 18 141 0.0 1.6 0.00 0.41 0.00 67 1013.5
20260507162540 18 323 0.0 0.0 0.00 0.41 0.00 68 1013.6
20260507162040 18 30 0.0 3.2 0.00 0.41 0.00 68 1013.5
20260507161540 18 258 0.0 3.2 0.00 0.41 0.00 68 1013.5
20260507161038 18 132 0.0 3.2 0.00 0.41 0.00 67 1013.4
20260507160539 18 127 0.0 3.2 0.00 0.41 0.00 66 1013.4
20260507160040 18 122 0.0 3.2 0.00 0.41 0.00 64 1013.5
20260507155539 19 141 0.0 4.8 0.00 0.41 0.00 62 1013.5
20260507155038 19 103 0.0 4.8 0.00 0.41 0.00 60 1013.6
20260507154539 19 126 0.0 1.6 0.00 0.41 0.00 57 1013.6
20260507154038 19 300 0.0 1.6 0.00 0.41 0.00 55 1013.5
20260507153537 19 150 0.0 4.8 0.00 0.41 0.00 54 1013.4
20260507153037 20 136 0.0 8.0 0.00 0.41 0.00 53 1013.5
20260507152536 20 142 0.0 8.0 0.00 0.41 0.00 54 1013.4
20260507152036 20 120 0.0 4.8 0.00 0.41 0.00 53 1013.3
20260507151535 21 133 0.0 8.0 0.00 0.41 0.00 53 1013.0
20260507151034 21 277 0.0 9.7 0.00 0.41 0.00 53 1012.9
20260507150534 21 93 0.0 14.5 0.00 0.41 0.00 57 1012.7
20260507150033 21 68 0.0 6.4 0.00 0.41 0.00 59 1012.5
20260507145532 21 136 0.0 9.7 0.00 0.41 0.00 61 1012.5
20260507145032 21 65 1.6 8.0 0.00 0.41 0.00 60 1012.5
20260507144535 21 103 3.2 6.4 0.00 0.41 0.00 59 1012.4
20260507144031 21 128 0.0 8.0 0.00 0.41 0.00 58 1012.3
20260507143531 22 127 1.6 9.7 0.00 0.41 0.00 57 1012.2
20260507143033 22 115 3.2 9.7 0.00 0.41 0.00 57 1012.2
20260507142530 22 61 1.6 8.0 0.00 0.41 0.00 54 1012.3
20260507142030 22 98 0.0 8.0 0.00 0.41 0.00 59 1012.2
20260507141530 22 25 0.0 11.3 0.00 0.41 0.00 57 1012.2
20260507141029 22 105 1.6 11.3 0.00 0.41 0.00 57 1012.2
20260507140528 22 150 1.6 6.4 0.00 0.41 0.00 50 1012.3
20260507140030 22 122 0.0 6.4 0.00 0.41 0.00 50 1012.4
20260507135528 22 354 0.0 6.4 0.00 0.41 0.00 55 1012.4
20260507135028 22 176 0.0 11.3 0.00 0.41 0.00 56 1012.3
20260507134529 22 113 0.0 11.3 0.00 0.41 0.00 57 1012.4
20260507134030 22 86 3.2 11.3 0.00 0.41 0.00 53 1012.4
20260507133527 22 97 0.0 6.4 0.00 0.41 0.00 56 1012.4
20260507133025 22 149 0.0 11.3 0.00 0.41 0.00 57 1012.4
20260507132525 22 232 1.6 11.3 0.00 0.41 0.00 58 1012.4
20260507132025 22 147 0.0 6.4 0.00 0.41 0.00 59 1012.4
20260507131534 22 90 1.6 8.0 0.00 0.41 0.00 59 1012.5
20260507131024 22 101 0.0 8.0 0.00 0.41 0.00 62 1012.4
20260507130523 22 125 1.6 9.7 0.00 0.41 0.00 58 1012.4
20260507130024 22 170 1.6 9.7 0.00 0.41 0.00 62 1012.5
20260507125523 22 117 0.0 9.7 0.00 0.43 0.00 64 1012.5
20260507125022 22 98 1.6 9.7 0.00 0.43 0.00 60 1012.5
20260507124524 22 168 1.6 6.4 0.00 0.43 0.00 64 1012.6
20260507124026 22 128 0.0 4.8 0.00 0.43 0.00 63 1012.6
20260507123521 22 134 0.0 6.4 0.00 0.43 0.00 62 1012.5
20260507123023 21 126 0.0 8.0 0.00 0.43 0.00 66 1012.5
20260507122517 21 141 1.6 8.0 0.00 0.43 0.00 64 1012.6
20260507122018 22 135 1.6 8.0 0.00 0.43 0.00 65 1012.5
20260507121517 22 120 0.0 8.0 0.00 0.43 0.00 67 1012.6
20260507121017 21 93 0.0 8.0 0.00 0.43 0.00 66 1012.6
20260507120516 21 129 0.0 11.3 0.00 0.43 0.00 65 1012.5
20260507120016 21 330 0.0 9.7 0.00 0.43 0.00 66 1012.6
20260507115518 21 84 0.0 9.7 0.00 0.48 0.00 65 1012.7
20260507115018 21 343 1.6 9.7 0.00 0.48 0.00 65 1012.8
20260507114516 21 141 0.0 8.0 0.00 0.48 0.00 64 1012.7
20260507114015 21 167 0.0 6.4 0.00 0.48 0.00 66 1012.7
20260507113515 21 84 0.0 6.4 0.00 0.48 0.00 64 1012.7
20260507113014 21 139 0.0 6.4 0.00 0.48 0.00 64 1012.8
20260507112513 21 154 0.0 8.0 0.00 0.48 0.00 65 1012.8
20260507112014 21 108 0.0 8.0 0.00 0.48 0.00 64 1012.9
20260507111513 21 351 0.0 9.7 0.00 0.48 0.00 65 1012.9
20260507111012 21 202 0.0 9.7 0.00 0.48 0.00 64 1012.8
20260507110511 21 141 1.6 11.3 0.00 0.48 0.00 65 1012.8
20260507110013 21 131 1.6 9.7 0.00 0.48 0.00 66 1012.9
20260507105511 21 76 1.6 12.9 0.00 0.51 0.00 66 1012.9
20260507105009 21 159 4.8 12.9 0.00 0.51 0.00 64 1013.1
20260507104510 21 97 1.6 11.3 0.00 0.51 0.00 64 1013.1
20260507104010 21 133 1.6 9.7 0.00 0.51 0.00 66 1013.1
20260507103509 21 111 1.6 9.7 0.00 0.51 0.00 67 1013.1
20260507103010 20 150 1.6 17.7 0.00 0.51 0.00 66 1013.1
20260507102509 21 115 3.2 17.7 0.00 0.51 0.00 64 1013.0
20260507102008 21 188 3.2 11.3 0.00 0.51 0.00 65 1013.1
20260507101510 21 127 3.2 8.0 0.00 0.51 0.00 65 1013.1
20260507101008 21 86 1.6 9.7 0.00 0.51 0.00 65 1013.1
20260507100507 21 158 3.2 9.7 0.00 0.51 0.00 66 1013.1
20260507100017 21 53 1.6 9.7 0.00 0.51 0.00 67 1013.1
20260507095506 20 137 1.6 11.3 0.00 0.79 0.00 66 1013.1
20260507095008 20 64 3.2 11.3 0.00 0.79 0.00 67 1013.1
20260507094604 20 241 1.6 14.5 0.00 0.79 0.00 65 1012.9
20260507094003 20 127 1.6 14.5 0.00 0.79 0.00 66 1013.1
20260507093503 20 231 1.6 11.3 0.00 0.79 0.00 68 1012.9
20260507093003 20 122 3.2 8.0 0.00 0.79 0.00 67 1013.0
20260507092505 20 34 0.0 9.7 0.00 0.79 0.00 68 1012.9
20260507092001 20 175 1.6 9.7 0.00 0.79 0.00 69 1013.0
20260507091507 20 87 1.6 8.0 0.00 0.79 0.00 70 1013.0
20260507091001 20 157 1.6 12.9 0.00 0.79 0.00 70 1013.0
20260507090501 20 115 1.6 20.9 0.00 0.79 0.00 69 1013.0
20260507090000 20 160 3.2 20.9 0.00 0.97 0.00 68 1013.0
20260507085601 20 147 1.6 9.7 0.00 0.97 0.00 68 1012.9
20260507085100 20 188 1.6 11.3 0.00 0.97 0.00 68 1012.9
20260507084601 20 162 1.6 11.3 0.00 0.97 0.00 68 1012.8
20260507084059 20 82 1.6 9.7 0.00 0.97 0.00 69 1012.9
20260507083602 20 136 1.6 12.9 0.00 0.97 0.00 69 1012.8
20260507083102 20 233 1.6 12.9 0.00 0.97 0.00 70 1012.8
20260507082557 20 169 0.0 11.3 0.00 0.97 0.00 71 1012.8
20260507082059 19 98 1.6 12.9 0.00 0.97 0.00 71 1012.8
20260507081600 19 123 0.0 12.9 0.00 0.97 0.00 75 1012.7
20260507081057 19 119 0.0 12.9 0.00 0.97 0.00 73 1012.7
20260507080555 20 105 1.6 8.0 0.00 0.97 0.00 71 1012.7
20260507080057 20 101 0.0 4.8 0.00 0.97 0.00 74 1012.6
20260507075557 20 135 0.0 4.8 0.00 1.27 0.00 74 1012.7
20260507075053 20 186 0.0 3.2 0.00 1.27 0.00 75 1012.7
20260507074553 19 101 0.0 9.7 0.00 1.27 0.00 77 1012.7
20260507074053 19 105 0.0 9.7 0.00 1.27 0.00 76 1012.8
20260507073552 19 121 1.6 9.7 0.00 1.27 0.00 76 1012.6
20260507073101 19 129 0.0 1.6 0.00 1.27 0.00 77 1012.6
20260507072552 18 135 0.0 0.0 0.00 1.27 0.00 81 1012.5
20260507072050 18 153 0.0 1.6 0.00 1.27 0.00 80 1012.6
20260507071550 18 138 0.0 3.2 0.00 1.27 0.00 79 1012.6
20260507071050 18 135 0.0 3.2 0.00 1.27 0.00 77 1012.6
20260507070549 18 149 0.0 6.4 0.00 1.27 0.00 77 1012.5
20260507070134 19 140 0.0 8.0 0.00 1.27 0.00 76 1012.4
20260507065547 19 142 1.6 8.0 0.00 1.55 0.00 78 1012.4
20260507065046 18 146 0.0 3.2 0.00 1.55 0.00 80 1012.4
20260507064549 18 158 0.0 6.4 0.00 1.55 0.00 80 1012.4
20260507064045 18 145 0.0 4.8 0.00 1.55 0.00 82 1012.4
20260507063543 18 156 0.0 3.2 0.00 1.55 0.00 83 1012.4
20260507063041 17 138 0.0 4.8 0.00 1.55 0.00 84 1012.4
20260507062539 17 127 0.0 3.2 0.00 1.55 0.00 87 1012.3
20260507062038 16 131 0.0 1.6 0.00 1.55 0.00 87 1012.2
20260507061538 16 139 0.0 0.0 0.00 1.55 0.00 89 1012.3
20260507061036 16 139 0.0 1.6 0.00 1.55 0.00 88 1012.2
20260507060536 16 137 0.0 1.6 0.00 1.55 0.00 88 1012.3
20260507060037 16 137 0.0 1.6 0.00 1.55 0.00 88 1012.3
20260507055535 16 136 0.0 1.6 0.00 2.24 0.00 88 1012.3
20260507055034 16 150 0.0 1.6 0.00 2.24 0.00 89 1012.2
20260507054533 16 139 0.0 3.2 0.00 2.24 0.00 89 1012.1
20260507054032 15 138 0.0 3.2 0.00 2.24 0.00 89 1012.0
20260507053533 15 148 0.0 1.6 0.00 2.24 0.00 90 1012.0
20260507053031 15 132 0.0 1.6 0.00 2.24 0.00 91 1012.0
20260507052530 15 134 0.0 1.6 0.00 2.24 0.00 91 1012.0
20260507052029 15 143 0.0 0.0 0.00 2.24 0.00 92 1012.0
20260507051528 15 140 0.0 0.0 0.00 2.24 0.00 93 1011.9
20260507051027 15 140 0.0 0.0 0.00 2.24 0.00 93 1011.9
20260507050526 15 140 0.0 0.0 0.00 2.24 0.00 93 1011.8
20260507050032 15 140 0.0 0.0 0.00 2.24 0.00 93 1011.8
20260507045529 15 139 0.0 0.0 0.00 2.24 0.00 93 1011.7
20260507045030 15 139 0.0 0.0 0.00 2.24 0.00 93 1011.7
20260507044540 15 139 0.0 0.0 0.00 2.24 0.00 93 1011.7
20260507044026 15 139 0.0 0.0 0.00 2.24 0.00 93 1011.6
20260507043526 15 139 0.0 0.0 0.00 2.24 0.00 93 1011.7
20260507043027 15 139 0.0 0.0 0.00 2.24 0.00 93 1011.5
20260507042526 14 139 0.0 0.0 0.00 2.24 0.00 93 1011.5
20260507042024 14 139 0.0 0.0 0.00 2.24 0.00 93 1011.5
20260507041525 14 139 0.0 0.0 0.00 2.24 0.00 93 1011.5
20260507041025 14 139 0.0 0.0 0.00 2.24 0.00 93 1011.6
20260507040525 14 139 0.0 0.0 0.00 2.24 0.00 92 1011.4
20260507040024 14 139 0.0 0.0 0.00 2.24 0.00 92 1011.4
20260507035524 15 139 0.0 0.0 0.00 2.24 0.00 93 1011.3
20260507035024 14 139 0.0 0.0 0.00 2.24 0.00 93 1011.3
20260507034523 14 139 0.0 0.0 0.00 2.24 0.00 93 1011.4
20260507034023 14 139 0.0 0.0 0.00 2.24 0.00 92 1011.3
20260507033523 14 139 0.0 0.0 0.00 2.24 0.00 92 1011.4
20260507033024 14 139 0.0 0.0 0.00 2.24 0.00 92 1011.3
20260507032523 14 139 0.0 0.0 0.00 2.24 0.00 92 1011.2
20260507032022 14 139 0.0 0.0 0.00 2.24 0.00 92 1011.4
20260507031522 14 139 0.0 0.0 0.00 2.24 0.00 92 1011.3
20260507031024 15 139 0.0 0.0 0.00 2.24 0.00 92 1011.3
20260507030522 15 139 0.0 0.0 0.00 2.24 0.00 92 1011.5
20260507030022 15 139 0.0 0.0 0.00 2.24 0.00 92 1011.4
20260507025522 15 139 0.0 0.0 0.00 2.24 0.00 91 1011.3
20260507025022 15 139 0.0 0.0 0.00 2.24 0.00 91 1011.3
20260507024522 15 139 0.0 0.0 0.00 2.24 0.00 91 1011.4
20260507024022 15 139 0.0 1.6 0.00 2.24 0.00 91 1011.4
20260507023524 15 139 0.0 1.6 0.00 2.24 0.00 91 1011.2
20260507023021 15 141 0.0 0.0 0.00 2.24 0.00 91 1011.3
20260507022521 15 141 0.0 1.6 0.00 2.24 0.00 91 1011.4
20260507022021 15 135 0.0 1.6 0.00 2.24 0.00 91 1011.4
20260507021520 15 137 0.0 0.0 0.00 2.24 0.00 90 1011.4
20260507021020 15 137 0.0 0.0 0.00 2.24 0.00 90 1011.5
20260507020519 15 146 0.0 0.0 0.00 2.24 0.00 90 1011.4
20260507020018 15 148 0.0 6.4 0.00 2.24 0.00 90 1011.3
20260507015516 15 148 1.6 6.4 0.00 2.24 0.00 90 1011.4
20260507015019 15 155 0.0 1.6 0.00 2.24 0.00 90 1011.4
20260507014513 15 132 0.0 1.6 0.00 2.24 0.00 90 1011.3
20260507014012 15 139 0.0 0.0 0.00 2.24 0.00 90 1011.4
20260507013510 15 139 0.0 3.2 0.00 2.24 0.00 90 1011.5
20260507013008 15 139 0.0 3.2 0.00 2.24 0.00 90 1011.4
20260507012511 15 106 0.0 0.0 0.00 2.24 0.00 90 1011.3
20260507012006 15 101 0.0 0.0 0.00 2.24 0.00 90 1011.3
20260507011505 15 115 0.0 1.6 0.00 2.24 0.00 90 1011.3
20260507011004 15 146 0.0 0.0 0.00 2.24 0.00 90 1011.3
20260507010502 15 146 0.0 0.0 0.00 2.24 0.00 90 1011.4
20260507010116 15 146 0.0 1.6 0.00 2.24 0.00 90 1011.3
20260507005600 15 148 0.0 1.6 0.00 2.24 0.00 90 1011.4
20260507005101 15 124 0.0 0.0 0.00 2.24 0.00 90 1011.3
20260507004559 15 157 0.0 0.0 0.00 2.24 0.00 90 1011.3
20260507004059 15 157 0.0 0.0 0.00 2.24 0.00 91 1011.4
20260507003559 15 85 0.0 0.0 0.00 2.24 0.00 90 1011.4
20260507003058 15 83 0.0 0.0 0.00 2.24 0.00 90 1011.4
20260507002558 15 83 0.0 0.0 0.00 2.24 0.00 90 1011.3
20260507002058 15 83 0.0 0.0 0.00 2.24 0.00 89 1011.3
20260507001605 15 83 0.0 3.2 0.00 2.24 0.00 89 1011.3
20260507001101 15 73 0.0 3.2 0.00 2.24 0.00 89 1011.5
20260507000557 15 72 0.0 3.2 0.00 2.24 0.00 89 1011.5
20260507000057 15 125 0.0 3.2 0.00 2.24 0.00 89 1011.4
20260506235557 15 169 0.0 1.6 0.00 2.24 0.00 90 1011.5
20260506235058 15 158 0.0 1.6 0.00 2.24 0.00 90 1011.5
20260506234558 15 86 0.0 3.2 0.00 2.24 0.00 90 1011.5
20260506234055 15 91 0.0 3.2 0.00 2.24 0.00 91 1011.6
20260506233553 15 136 0.0 0.0 0.00 2.24 0.00 91 1011.6
20260506233054 15 136 0.0 0.0 0.00 2.24 0.00 91 1011.7
20260506232549 15 136 0.0 1.6 0.00 2.24 0.00 91 1011.7
20260506232049 15 136 0.0 1.6 0.00 2.24 0.00 91 1011.7
20260506231549 15 162 0.0 1.6 0.00 2.24 0.00 91 1011.9
20260506231052 15 162 0.0 1.6 0.00 2.24 0.00 91 1011.9
20260506230552 15 101 0.0 1.6 0.00 2.24 0.00 91 1011.8
20260506230050 14 85 0.0 3.2 0.00 2.24 0.00 91 1011.8
20260506225548 14 122 0.0 3.2 0.00 2.24 0.00 91 1011.9
20260506225048 14 90 0.0 4.8 0.00 2.24 0.00 91 1011.8
20260506224548 14 92 1.6 4.8 0.00 2.24 0.00 92 1011.7